When you browse on this site, cookies collect data to enhance your experience and personalize the content and advertising you see.
Visit our Privacy Policy to learn more. By continuing to use the site, you agree to this use of cookies and data.
EN

Hourly Weather Novaya Kashtanovka

Today, 20 September, Sunday

Time Temperature Precipitation Wind Pressure Humidity
00:00 +5°C° 0 mm 4 mps 742 mmHg 83%
01:00 +5°C° 0 mm 4 mps 742 mmHg 85%
02:00 +5°C° 0 mm 4 mps 742 mmHg 88%
03:00 +5°C° 0 mm 5 mps 742 mmHg 91%
04:00 +5°C° 0 mm 5 mps 742 mmHg 92%
05:00 +5°C° 0 mm 5 mps 743 mmHg 93%
06:00 +3°C° 0 mm 5 mps 743 mmHg 94%
07:00 +5°C° 0 mm 5 mps 743 mmHg 88%
08:00 +5°C° 0 mm 6 mps 743 mmHg 82%
09:00 +6°C° 0 mm 7 mps 743 mmHg 75%
10:00 +8°C° 0 mm 7 mps 744 mmHg 73%
11:00 +8°C° 0 mm 7 mps 744 mmHg 71%
12:00 +7°C° 0 mm 8 mps 745 mmHg 70%
13:00 +8°C° 0 mm 7 mps 745 mmHg 67%
14:00 +8°C° 0 mm 7 mps 745 mmHg 65%
15:00 +8°C° 0 mm 7 mps 746 mmHg 62%
16:00 +8°C° 0 mm 6 mps 746 mmHg 62%
17:00 +8°C° 0 mm 5 mps 746 mmHg 61%
18:00 +8°C° 0 mm 4 mps 747 mmHg 61%
19:00 +8°C° 0 mm 4 mps 747 mmHg 63%
20:00 +8°C° 0 mm 3 mps 748 mmHg 65%
21:00 +8°C° 0 mm 3 mps 748 mmHg 68%
22:00 +8°C° 0 mm 3 mps 748 mmHg 69%
23:00 +8°C° 0 mm 3 mps 748 mmHg 69%

Tomorrow, 21 September, Monday

Time Temperature Precipitation Wind Pressure Humidity
00:00 +8°C° 0 mm 3 mps 748 mmHg 70%
01:00 +7°C° 0 mm 3 mps 749 mmHg 73%
02:00 +5°C° 0 mm 4 mps 749 mmHg 76%
03:00 +5°C° 0 mm 4 mps 749 mmHg 79%
04:00 +4°C° 0 mm 4 mps 749 mmHg 82%
05:00 +4°C° 0 mm 4 mps 749 mmHg 85%
06:00 +4°C° 0 mm 4 mps 749 mmHg 87%
07:00 +5°C° 0 mm 4 mps 749 mmHg 80%
08:00 +7°C° 0 mm 5 mps 749 mmHg 73%
09:00 +8°C° 0 mm 6 mps 749 mmHg 67%
10:00 +9°C° 0 mm 6 mps 749 mmHg 62%
11:00 +11°C° 0 mm 7 mps 749 mmHg 58%
12:00 +12°C° 0 mm 7 mps 748 mmHg 54%
13:00 +12°C° 0 mm 7 mps 748 mmHg 54%
14:00 +13°C° 0 mm 8 mps 748 mmHg 53%
15:00 +13°C° 0 mm 8 mps 748 mmHg 53%
16:00 +12°C° 0 mm 7 mps 748 mmHg 58%
17:00 +11°C° 0 mm 6 mps 748 mmHg 62%
18:00 +11°C° 0 mm 4 mps 748 mmHg 66%
19:00 +11°C° 0 mm 4 mps 748 mmHg 68%
20:00 +11°C° 0 mm 4 mps 748 mmHg 70%
21:00 +10°C° 0 mm 4 mps 749 mmHg 72%
22:00 +10°C° 0 mm 4 mps 749 mmHg 75%
23:00 +10°C° 0 mm 4 mps 749 mmHg 78%

Day after tomorrow, 22 September, Tuesday

Time Temperature Precipitation Wind Pressure Humidity
00:00 +10°C° 0 mm 4 mps 749 mmHg 80%
01:00 +8°C° 0 mm 4 mps 749 mmHg 82%
02:00 +8°C° 0 mm 4 mps 749 mmHg 85%
03:00 +8°C° 0 mm 3 mps 749 mmHg 87%
04:00 +7°C° 0 mm 4 mps 749 mmHg 88%
05:00 +7°C° 0 mm 4 mps 749 mmHg 90%
06:00 +7°C° 0 mm 4 mps 749 mmHg 91%
07:00 +8°C° 0 mm 4 mps 749 mmHg 85%
08:00 +10°C° 0 mm 5 mps 749 mmHg 80%
09:00 +13°C° 0 mm 6 mps 749 mmHg 74%
10:00 +14°C° 0 mm 6 mps 749 mmHg 70%
11:00 +16°C° 0 mm 7 mps 749 mmHg 66%
12:00 +17°C° 0 mm 7 mps 748 mmHg 63%
13:00 +18°C° 0 mm 7 mps 748 mmHg 61%
14:00 +18°C° 0 mm 7 mps 748 mmHg 59%
15:00 +20°C° 0 mm 8 mps 748 mmHg 57%
16:00 +18°C° 0 mm 7 mps 748 mmHg 59%
17:00 +17°C° 0 mm 6 mps 748 mmHg 62%
18:00 +16°C° 0 mm 5 mps 748 mmHg 65%
19:00 +15°C° 0 mm 5 mps 748 mmHg 66%
20:00 +14°C° 0 mm 5 mps 748 mmHg 67%
21:00 +14°C° 0 mm 5 mps 748 mmHg 69%
22:00 +13°C° 0 mm 5 mps 748 mmHg 71%
23:00 +13°C° 0 mm 5 mps 748 mmHg 74%

23 September, Wednesday

Time Temperature Precipitation Wind Pressure Humidity
00:00 +12°C° 0 mm 5 mps 748 mmHg 76%
01:00 +12°C° 0 mm 4 mps 748 mmHg 80%
02:00 +11°C° 0 mm 4 mps 748 mmHg 84%
03:00 +11°C° 0 mm 4 mps 748 mmHg 87%
04:00 +10°C° 0 mm 3 mps 749 mmHg 90%
05:00 +10°C° 0 mm 3 mps 749 mmHg 92%
06:00 +9°C° 0 mm 3 mps 749 mmHg 94%
07:00 +11°C° 0 mm 3 mps 749 mmHg 88%
08:00 +13°C° 0 mm 3 mps 750 mmHg 82%
09:00 +14°C° 0 mm 3 mps 750 mmHg 76%
10:00 +17°C° 0 mm 3 mps 750 mmHg 68%
11:00 +18°C° 0 mm 3 mps 750 mmHg 60%
12:00 +20°C° 0 mm 3 mps 750 mmHg 52%
13:00 +21°C° 0 mm 3 mps 750 mmHg 50%
14:00 +21°C° 0 mm 3 mps 750 mmHg 48%
15:00 +22°C° 0 mm 3 mps 750 mmHg 46%
16:00 +20°C° 0 mm 2 mps 750 mmHg 51%
17:00 +19°C° 0 mm 1 mps 750 mmHg 57%
18:00 +18°C° 0 mm 1 mps 750 mmHg 63%
19:00 +15°C° 0 mm 0 mps 750 mmHg 65%
20:00 +14°C° 0 mm 0 mps 750 mmHg 68%
21:00 +14°C° 0 mm 0 mps 750 mmHg 70%
22:00 +14°C° 0 mm 1 mps 750 mmHg 71%
23:00 +14°C° 0 mm 1 mps 750 mmHg 73%

24 September, Thursday

Time Temperature Precipitation Wind Pressure Humidity
00:00 +14°C° 0 mm 1 mps 751 mmHg 74%
01:00 +13°C° 0 mm 2 mps 751 mmHg 76%
02:00 +13°C° 0 mm 2 mps 751 mmHg 77%
03:00 +12°C° 0 mm 2 mps 751 mmHg 79%
04:00 +12°C° 0 mm 2 mps 751 mmHg 80%
05:00 +12°C° 0 mm 2 mps 751 mmHg 81%
06:00 +12°C° 0 mm 2 mps 751 mmHg 82%
07:00 +13°C° 0 mm 2 mps 752 mmHg 76%
08:00 +15°C° 0 mm 2 mps 752 mmHg 69%
09:00 +17°C° 0 mm 2 mps 752 mmHg 63%
10:00 +18°C° 0 mm 2 mps 752 mmHg 58%
11:00 +20°C° 0 mm 2 mps 752 mmHg 53%
12:00 +23°C° 0 mm 2 mps 752 mmHg 49%
13:00 +23°C° 0 mm 2 mps 752 mmHg 47%
14:00 +23°C° 0 mm 2 mps 752 mmHg 45%
15:00 +24°C° 0 mm 2 mps 752 mmHg 43%
16:00 +21°C° 0 mm 2 mps 752 mmHg 48%
17:00 +20°C° 0 mm 2 mps 752 mmHg 52%
18:00 +18°C° 0 mm 2 mps 752 mmHg 57%
19:00 +18°C° 0 mm 2 mps 752 mmHg 59%
20:00 +17°C° 0 mm 2 mps 752 mmHg 61%
21:00 +16°C° 0 mm 3 mps 752 mmHg 63%
22:00 +14°C° 0 mm 3 mps 752 mmHg 64%
23:00 +14°C° 0 mm 3 mps 753 mmHg 65%

25 September, Friday

Time Temperature Precipitation Wind Pressure Humidity
00:00 +13°C° 0 mm 3 mps 753 mmHg 66%
01:00 +13°C° 0 mm 3 mps 753 mmHg 67%
02:00 +13°C° 0 mm 3 mps 753 mmHg 67%
03:00 +12°C° 0 mm 3 mps 753 mmHg 68%
04:00 +12°C° 0 mm 3 mps 753 mmHg 69%
05:00 +12°C° 0 mm 3 mps 753 mmHg 71%
06:00 +11°C° 0 mm 3 mps 753 mmHg 72%
07:00 +13°C° 0 mm 3 mps 753 mmHg 67%
08:00 +14°C° 0 mm 3 mps 753 mmHg 63%
09:00 +17°C° 0 mm 4 mps 753 mmHg 58%
10:00 +18°C° 0 mm 4 mps 753 mmHg 54%
11:00 +20°C° 0 mm 4 mps 753 mmHg 49%
12:00 +22°C° 0 mm 4 mps 753 mmHg 44%
13:00 +22°C° 0 mm 4 mps 753 mmHg 42%
14:00 +23°C° 0 mm 4 mps 753 mmHg 41%
15:00 +23°C° 0 mm 4 mps 753 mmHg 39%
16:00 +22°C° 0 mm 4 mps 753 mmHg 44%
17:00 +20°C° 0 mm 3 mps 753 mmHg 49%
18:00 +18°C° 0 mm 3 mps 753 mmHg 54%
19:00 +17°C° 0 mm 3 mps 753 mmHg 54%
20:00 +15°C° 0 mm 4 mps 753 mmHg 53%
21:00 +14°C° 0 mm 4 mps 753 mmHg 53%
22:00 +13°C° 0 mm 4 mps 753 mmHg 52%
23:00 +13°C° 0 mm 4 mps 754 mmHg 51%
Show more